FW7228 Weather Reports


Display with metric or nautical units.
time (UTC)temp
F
wind
direction
speed
MPH
gust
MPH
rain 1hr
in
rain 24hr
in
rain mn
in
humidity
%
barometer
mb
20260506170004 50 311 6.0 12.0 0.00 0.07 0.00 54 1012.9
20260506164501 49 307 5.0 9.0 0.00 0.07 0.00 55 1012.8
20260506163001 48 301 6.0 13.0 0.00 0.07 0.00 57 1012.7
20260506161503 47 304 7.0 15.0 0.00 0.07 0.00 57 1012.7
20260506160004 47 324 6.0 16.0 0.00 0.07 0.00 58 1012.5
20260506154501 45 274 7.0 12.0 0.00 0.07 0.00 61 1012.5
20260506153003 44 323 6.0 11.0 0.00 0.07 0.00 63 1012.5
20260506151502 44 240 5.0 11.0 0.00 0.07 0.00 67 1012.5
20260506144501 42 315 6.0 11.0 0.00 0.07 0.00 69 1012.7
20260506143001 41 290 5.0 14.0 0.00 0.07 0.00 71 1012.7
20260506140006 40 269 5.0 10.0 0.00 0.07 0.00 74 1012.5
20260506134501 39 291 7.0 13.0 0.00 0.07 0.00 73 1012.2
20260506133001 39 338 5.0 11.0 0.00 0.07 0.00 76 1012.3
20260506131502 38 300 6.0 11.0 0.00 0.07 0.00 76 1012.2
20260506124501 36 324 0.0 1.0 0.00 0.07 0.00 81 1012.5
20260506123001 35 356 1.0 5.0 0.00 0.07 0.00 86 1012.3
20260506120004 35 257 2.0 7.0 0.00 0.07 0.00 84 1011.4
20260506114501 36 249 2.0 5.0 0.00 0.07 0.00 83 1011.4
20260506113000 36 303 2.0 6.0 0.00 0.07 0.00 84 1011.5
20260506111502 36 320 2.0 8.0 0.00 0.07 0.00 85 1011.6
20260506104501 36 222 1.0 6.0 0.00 0.07 0.00 85 1011.5
20260506101502 36 262 1.0 5.0 0.00 0.07 0.00 84 1011.5
20260506100003 37 255 0.0 2.0 0.00 0.07 0.00 84 1011.5
20260506094500 38 320 0.0 4.0 0.00 0.07 0.00 83 1011.5
20260506093000 39 300 1.0 5.0 0.00 0.07 0.00 81 1011.4
20260506091502 39 297 1.0 5.0 0.00 0.07 0.00 76 1011.3
20260506090004 39 323 2.0 5.0 0.00 0.07 0.00 78 1011.1
20260506084500 40 304 4.0 10.0 0.00 0.07 0.00 73 1011.1
20260506081502 39 330 2.0 8.0 0.00 0.07 0.00 79 1011.4
20260506071504 40 15 1.0 5.0 0.00 0.07 0.00 83 1011.5
20260506044502 40 34 6.0 15.0 0.01 0.07 0.07 89 1011.2
20260506043002 40 349 4.0 12.0 0.06 0.07 0.07 91 1011.1
20260506041503 40 341 2.0 6.0 0.06 0.07 0.07 91 1011.3
20260506040006 40 320 4.0 10.0 0.05 0.06 0.06 90 1010.7
20260506033001 43 334 6.0 14.0 0.00 0.01 0.01 80 1010.6
20260506030005 44 1 6.0 12.0 0.00 0.01 0.01 76 1010.3
20260506023002 47 328 3.0 11.0 0.00 0.01 0.01 71 1009.7
20260506014504 47 292 0.0 3.0 0.00 0.01 0.01 67 1008.8
20260506013003 48 320 2.0 4.0 0.00 0.01 0.01 67 1008.3
20260506011502 49 326 7.0 16.0 0.00 0.01 0.01 64 1008.5
20260506010005 50 284 8.0 14.0 0.00 0.01 0.01 57 1008.7
20260506004503 51 290 5.0 10.0 0.00 0.01 0.01 56 1008.3
20260506003002 52 281 5.0 12.0 0.00 0.01 0.01 55 1008.3
20260506001501 53 271 5.0 11.0 0.00 0.01 0.01 54 1008.3
20260506000004 55 249 6.0 13.0 0.00 0.01 0.01 52 1008.2
20260505231502 56 315 5.0 11.0 0.00 0.01 0.01 52 1008.1
20260505230004 56 160 2.0 5.0 0.00 0.01 0.01 58 1008.2
20260505224500 52 307 4.0 8.0 0.00 0.01 0.01 64 1008.4
20260505223002 49 283 4.0 8.0 0.00 0.01 0.01 76 1008.8
20260505221500 49 292 10.0 22.0 0.00 0.01 0.01 69 1008.9
20260505220005 52 283 8.0 20.0 0.00 0.01 0.01 62 1008.9
20260505214502 56 320 6.0 16.0 0.00 0.01 0.01 56 1008.8
20260505213002 59 323 4.0 11.0 0.00 0.01 0.01 55 1009.0
20260505211501 54 327 2.0 6.0 0.00 0.01 0.01 60 1009.2
20260505210005 53 315 2.0 8.0 0.00 0.01 0.01 62 1009.1
20260505204501 52 194 3.0 10.0 0.00 0.01 0.01 63 1009.4
20260505201502 54 323 6.0 18.0 0.00 0.01 0.01 61 1009.6
20260505200004 54 266 7.0 13.0 0.01 0.01 0.01 62 1009.6
20260505194501 53 257 5.0 15.0 0.01 0.01 0.01 68 1009.7
20260505191502 49 295 3.0 9.0 0.01 0.01 0.01 87 1009.9
20260505184500 55 321 6.0 15.0 0.00 0.00 0.00 55 1009.9
20260505183001 56 226 6.0 13.0 0.00 0.00 0.00 55 1009.6
20260505181502 57 248 5.0 13.0 0.00 0.00 0.00 54 1009.7
20260505180006 55 232 3.0 7.0 0.00 0.00 0.00 56 1009.6
20260505174500 55 291 3.0 8.0 0.00 0.00 0.00 54 1010.0
20260505173001 54 303 3.0 7.0 0.00 0.00 0.00 56 1009.8
20260505171502 53 307 3.0 7.0 0.00 0.00 0.00 57 1010.3